User: anonymous   Login
Location: Allos
(44.2333°N, 6.6333°E)
Time: 06:38:07
(UTC+00:00)
Language:

DX 1 - Orbit

View from above orbital plane
View from above orbital plane
View from above satellite
View from above satellite

Ground track
Ground track

The orbit data is extracted from the following two-line orbital elements,

1 40071U 14037C   21130.83150580  .00000094  00000-0  19592-4 0  9997
2 40071  98.4564 333.4125 0008776 160.4173 199.7374 14.81487937369720
Epoch (UTC): 10 May 2021 19:57:22
Eccentricity: 0.0008776
inclination: 98.4564°
perigee height: 618 km
apogee height: 631 km
right ascension of ascending node: 333.4125°
argument of perigee: 160.4173°
revolutions per day: 14.81487937
mean anomaly at epoch: 199.7374°
orbit number at epoch: 36972

The dashed part of the orbit path shows where the satellite is in the earth's shadow,  

DLR